Location: Agadir Irigdalene
(31.2522°N, 8.7797°W)
Time: 06:18:32
(UTC+00:00)

USA 281 - Pass Details

Date: 01 December 2020
Orbit: 1074 x 1084 km, 106.0° (Epoch: 22 January)

Event Time Altitude Azimuth Distance (km) Brightness Sun altitude
Rises 19:01:19 0° 137° (SE) 3,871 5.9 -18.7°
Reaches altitude 10° 19:03:57 10° 130° (SE) 2,916 5.2 -19.3°
Maximum altitude 19:10:01 42° 62° (ENE) 1,499 3.5 -20.5°
Drops below altitude 10° 19:16:06 10° 354° (N) 2,921 5.4 -21.8°
Sets 19:18:45 0° 348° (NNW) 3,879 6.1 -22.3°
